Change the Weather History Date:

Wednesday, September 5, 2012

  Actual Average Record
Temperature  
Mean Temperature 76 °F 69 °F  
Max Temperature 88 °F 80 °F 96 °F (1990)
Min Temperature 63 °F 59 °F 46 °F (2008)
Degree Days  
Heating Degree Days 0 1  
Month to date heating degree days 0 5  
Since 1 July heating degree days 1 13  
Cooling Degree Days 11 5  
Month to date cooling degree days 55 29  
Year to date cooling degree days 1266 867  
Growing Degree Days 28 (Base 50)    
Moisture  
Dew Point 62 °F    
Average Humidity 64    
Maximum Humidity 87    
Minimum Humidity 40    
Precipitation  
Precipitation 0.00 in 0.16 in 1.91 in (1993)
Month to date precipitation 0.06 0.79  
Sea Level Pressure  
Sea Level Pressure 29.83 in    
Wind  
Wind Speed 8 mph (North)    
Max Wind Speed 17 mph    
Max Gust Speed 23 mph    
Visibility 10 miles    
Events      
T = Trace of Precipitation, MM = Missing Value Source: NWS Daily Summary

Daily Weather History Graph

Daily Weather History Graph

Search for Another Location

Airport or City:

Trip Planner

Search our weather history database for the weather conditions in past years. The results will help you decide how hot, cold, wet, or windy it might be!

Date:

Astronomy

Sep. 05, 2012 Rise Set
Actual Time 6:47 AM CDT 7:40 PM CDT
Civil Twilight 6:19 AM CDT 8:08 PM CDT
Nautical Twilight 5:46 AM CDT 8:41 PM CDT
Astronomical Twilight 5:11 AM CDT 9:15 PM CDT
Moon 10:08 PM CDT (9/5) 11:53 AM CDT (9/5)
Length of Visible Light 13h 48m
Length of Day
12h 53m
Waning Gibbous, 76% of the Moon is Illuminated
Sep 5
Waning Gibbous
Sep 8
Last Quarter
Sep 15
New
Sep 22
First Quarter
Sep 29
Full

Hourly Weather History & Observations

Time (CDT) Temp. Heat Index Dew Point Humidity Pressure Visibility Wind Dir Wind Speed Gust Speed Precip Events Conditions
12:53 AM 75.0 °F - 70.0 °F 84% 29.75 in 10.0 mi SSW 8.1 mph - N/A   Clear
1:53 AM 75.0 °F - 69.1 °F 82% 29.75 in 10.0 mi South 8.1 mph - N/A   Clear
2:53 AM 73.9 °F - 69.1 °F 85% 29.75 in 10.0 mi South 6.9 mph - N/A   Clear
3:53 AM 75.0 °F - 69.1 °F 82% 29.79 in 10.0 mi Variable 6.9 mph 17.3 mph N/A   Clear
4:53 AM 72.0 °F - 62.1 °F 71% 29.81 in 10.0 mi ENE 12.7 mph 21.9 mph N/A   Clear
5:53 AM 68.0 °F - 60.1 °F 76% 29.82 in 10.0 mi NE 6.9 mph - 0.01 in   Clear
6:53 AM 68.0 °F - 60.1 °F 76% 29.82 in 10.0 mi East 10.4 mph 18.4 mph 0.01 in   Clear
7:53 AM 68.0 °F - 60.1 °F 76% 29.83 in 10.0 mi ESE 8.1 mph - N/A   Clear
8:53 AM 70.0 °F - 62.1 °F 76% 29.84 in 10.0 mi ESE 8.1 mph - N/A   Clear
9:53 AM 73.0 °F - 63.0 °F 71% 29.84 in 10.0 mi SE 6.9 mph - N/A   Clear
10:53 AM 75.9 °F - 66.0 °F 71% 29.84 in 10.0 mi SSE 6.9 mph - N/A   Clear
11:53 AM 79.0 °F - 66.9 °F 66% 29.83 in 10.0 mi Variable 4.6 mph - N/A   Clear
12:53 PM 82.9 °F 85.0 °F 66.0 °F 56% 29.82 in 10.0 mi Variable 6.9 mph - N/A   Clear
1:53 PM 84.0 °F 86.3 °F 66.0 °F 55% 29.81 in 10.0 mi Variable 5.8 mph - N/A   Clear
2:53 PM 86.0 °F 88.8 °F 66.9 °F 53% 29.81 in 10.0 mi WNW 5.8 mph - N/A   Clear
3:53 PM 88.0 °F 90.3 °F 66.0 °F 48% 29.81 in 10.0 mi WNW 10.4 mph - N/A   Clear
4:53 PM 88.0 °F 87.9 °F 61.0 °F 40% 29.81 in 10.0 mi WNW 11.5 mph - N/A   Clear
5:53 PM 86.0 °F 85.7 °F 60.1 °F 41% 29.82 in 10.0 mi NW 10.4 mph - N/A   Clear
6:53 PM 81.0 °F 81.3 °F 59.0 °F 47% 29.83 in 10.0 mi NNW 6.9 mph - N/A   Clear
7:53 PM 75.9 °F - 55.9 °F 50% 29.86 in 10.0 mi NNW 8.1 mph - 0.02 in   Clear
8:53 PM 72.0 °F - 55.0 °F 55% 29.88 in 10.0 mi NNW 6.9 mph - 0.01 in   Clear
9:53 PM 69.1 °F - 55.0 °F 61% 29.89 in 10.0 mi NNW 8.1 mph - 0.02 in   Clear
10:53 PM 69.1 °F - 53.1 °F 57% 29.89 in 10.0 mi NNW 6.9 mph - N/A   Clear
11:53 PM 66.9 °F - 51.1 °F 57% 29.91 in 10.0 mi North 6.9 mph - N/A   Clear